EN

Hourly Weather Al Jadid

Today, 17 January, Sunday

Time Temperature Precipitation Wind Pressure Humidity
00:00 +15°C° 0.1 mm 8 mps 761 mmHg 64%
01:00 +15°C° 0.1 mm 9 mps 761 mmHg 65%
02:00 +13°C° 0.5 mm 8 mps 761 mmHg 68%
03:00 +14°C° 0.5 mm 7 mps 761 mmHg 71%
04:00 +14°C° 0.5 mm 7 mps 761 mmHg 75%
05:00 +12°C° 0.7 mm 7 mps 761 mmHg 78%
06:00 +11°C° 0.7 mm 8 mps 762 mmHg 81%
07:00 +10°C° 0.7 mm 9 mps 762 mmHg 84%
08:00 +11°C° 0.3 mm 7 mps 763 mmHg 78%
09:00 +13°C° 0.3 mm 5 mps 764 mmHg 72%
10:00 +14°C° 0.3 mm 2 mps 764 mmHg 66%
11:00 +14°C° 0 mm 3 mps 764 mmHg 62%
12:00 +16°C° 0 mm 3 mps 764 mmHg 58%
13:00 +16°C° 0 mm 3 mps 764 mmHg 54%
14:00 +16°C° 0 mm 3 mps 764 mmHg 56%
15:00 +16°C° 0 mm 3 mps 764 mmHg 58%
16:00 +16°C° 0 mm 3 mps 764 mmHg 60%
17:00 +14°C° 0 mm 3 mps 764 mmHg 63%
18:00 +15°C° 0 mm 2 mps 765 mmHg 66%
19:00 +14°C° 0 mm 1 mps 765 mmHg 69%
20:00 +14°C° 0 mm 1 mps 765 mmHg 70%
21:00 +14°C° 0 mm 1 mps 765 mmHg 71%
22:00 +14°C° 0 mm 1 mps 766 mmHg 72%
23:00 +14°C° 0 mm 2 mps 766 mmHg 71%

Tomorrow, 18 January, Monday

Time Temperature Precipitation Wind Pressure Humidity
00:00 +14°C° 0 mm 2 mps 765 mmHg 71%
01:00 +13°C° 0 mm 3 mps 765 mmHg 70%
02:00 +13°C° 0.1 mm 4 mps 765 mmHg 72%
03:00 +13°C° 0.1 mm 4 mps 765 mmHg 73%
04:00 +13°C° 0.1 mm 5 mps 765 mmHg 74%
05:00 +13°C° 0.1 mm 5 mps 765 mmHg 74%
06:00 +13°C° 0.1 mm 6 mps 765 mmHg 74%
07:00 +13°C° 0.1 mm 6 mps 765 mmHg 73%
08:00 +14°C° 0.1 mm 7 mps 765 mmHg 69%
09:00 +15°C° 0.1 mm 8 mps 766 mmHg 65%
10:00 +15°C° 0.1 mm 9 mps 766 mmHg 61%
11:00 +16°C° 0.1 mm 10 mps 765 mmHg 62%
12:00 +16°C° 0.1 mm 10 mps 765 mmHg 63%
13:00 +16°C° 0.1 mm 10 mps 764 mmHg 65%
14:00 +16°C° 0 mm 10 mps 764 mmHg 64%
15:00 +16°C° 0 mm 10 mps 764 mmHg 64%
16:00 +16°C° 0 mm 10 mps 764 mmHg 63%
17:00 +16°C° 0 mm 9 mps 764 mmHg 64%
18:00 +15°C° 0 mm 9 mps 765 mmHg 65%
19:00 +15°C° 0 mm 9 mps 765 mmHg 66%
20:00 +15°C° 0.3 mm 7 mps 765 mmHg 69%
21:00 +14°C° 0.3 mm 6 mps 765 mmHg 73%
22:00 +14°C° 0.3 mm 5 mps 766 mmHg 77%
23:00 +14°C° 0.1 mm 5 mps 766 mmHg 75%

Day after tomorrow, 19 January, Tuesday

Time Temperature Precipitation Wind Pressure Humidity
00:00 +14°C° 0.1 mm 5 mps 766 mmHg 73%
01:00 +14°C° 0.1 mm 5 mps 766 mmHg 71%
02:00 +14°C° 0.1 mm 5 mps 766 mmHg 73%
03:00 +13°C° 0.1 mm 5 mps 766 mmHg 75%
04:00 +12°C° 0.1 mm 5 mps 766 mmHg 77%
05:00 +12°C° 0 mm 5 mps 767 mmHg 77%
06:00 +12°C° 0 mm 4 mps 767 mmHg 77%
07:00 +11°C° 0 mm 4 mps 767 mmHg 77%
08:00 +12°C° 0 mm 5 mps 768 mmHg 72%
09:00 +13°C° 0 mm 6 mps 769 mmHg 66%
10:00 +14°C° 0 mm 7 mps 769 mmHg 60%
11:00 +14°C° 0 mm 7 mps 769 mmHg 57%
12:00 +15°C° 0 mm 6 mps 769 mmHg 53%
13:00 +15°C° 0 mm 6 mps 769 mmHg 49%
14:00 +15°C° 0 mm 7 mps 769 mmHg 50%
15:00 +15°C° 0 mm 7 mps 769 mmHg 51%
16:00 +14°C° 0 mm 7 mps 769 mmHg 52%
17:00 +14°C° 0 mm 6 mps 770 mmHg 54%
18:00 +13°C° 0 mm 5 mps 770 mmHg 56%
19:00 +13°C° 0 mm 4 mps 771 mmHg 59%
20:00 +12°C° 0 mm 4 mps 771 mmHg 61%
21:00 +12°C° 0 mm 4 mps 771 mmHg 64%
22:00 +12°C° 0 mm 4 mps 772 mmHg 66%
23:00 +11°C° 0 mm 4 mps 772 mmHg 67%

20 January, Wednesday

Time Temperature Precipitation Wind Pressure Humidity
00:00 +11°C° 0 mm 3 mps 772 mmHg 67%
01:00 +10°C° 0 mm 3 mps 772 mmHg 68%
02:00 +10°C° 0 mm 3 mps 772 mmHg 67%
03:00 +10°C° 0 mm 2 mps 772 mmHg 67%
04:00 +10°C° 0 mm 2 mps 772 mmHg 66%
05:00 +10°C° 0 mm 2 mps 772 mmHg 66%
06:00 +10°C° 0 mm 2 mps 772 mmHg 67%
07:00 +9°C° 0 mm 2 mps 773 mmHg 67%
08:00 +10°C° 0 mm 3 mps 773 mmHg 62%
09:00 +12°C° 0 mm 3 mps 773 mmHg 56%
10:00 +13°C° 0 mm 3 mps 773 mmHg 51%
11:00 +13°C° 0 mm 3 mps 773 mmHg 48%
12:00 +14°C° 0 mm 3 mps 772 mmHg 45%
13:00 +15°C° 0 mm 2 mps 772 mmHg 42%
14:00 +15°C° 0 mm 2 mps 772 mmHg 42%
15:00 +15°C° 0 mm 2 mps 772 mmHg 41%
16:00 +16°C° 0 mm 2 mps 771 mmHg 41%
17:00 +15°C° 0 mm 1 mps 772 mmHg 45%
18:00 +14°C° 0 mm 1 mps 772 mmHg 48%
19:00 +13°C° 0 mm 1 mps 772 mmHg 52%
20:00 +13°C° 0 mm 1 mps 772 mmHg 52%
21:00 +13°C° 0 mm 1 mps 772 mmHg 52%
22:00 +12°C° 0 mm 1 mps 772 mmHg 53%
23:00 +12°C° 0 mm 1 mps 772 mmHg 53%

21 January, Thursday

Time Temperature Precipitation Wind Pressure Humidity
00:00 +12°C° 0 mm 1 mps 772 mmHg 54%
01:00 +11°C° 0 mm 1 mps 772 mmHg 55%
02:00 +11°C° 0 mm 1 mps 771 mmHg 55%
03:00 +11°C° 0 mm 1 mps 771 mmHg 56%
04:00 +10°C° 0 mm 1 mps 771 mmHg 56%
05:00 +9°C° 0 mm 2 mps 771 mmHg 56%
06:00 +9°C° 0 mm 2 mps 772 mmHg 56%
07:00 +9°C° 0 mm 3 mps 772 mmHg 56%
08:00 +10°C° 0 mm 3 mps 772 mmHg 52%
09:00 +12°C° 0 mm 3 mps 772 mmHg 49%
10:00 +13°C° 0 mm 3 mps 772 mmHg 45%
11:00 +13°C° 0 mm 3 mps 772 mmHg 43%
12:00 +14°C° 0 mm 4 mps 771 mmHg 40%
13:00 +15°C° 0 mm 4 mps 771 mmHg 38%
14:00 +15°C° 0 mm 4 mps 770 mmHg 37%
15:00 +16°C° 0 mm 3 mps 770 mmHg 36%
16:00 +16°C° 0 mm 3 mps 770 mmHg 35%
17:00 +14°C° 0 mm 3 mps 770 mmHg 38%
18:00 +14°C° 0 mm 3 mps 770 mmHg 40%
19:00 +13°C° 0 mm 3 mps 770 mmHg 42%
20:00 +13°C° 0 mm 3 mps 770 mmHg 43%
21:00 +12°C° 0 mm 3 mps 770 mmHg 44%
22:00 +12°C° 0 mm 3 mps 770 mmHg 45%
23:00 +12°C° 0 mm 3 mps 770 mmHg 46%

22 January, Friday

Time Temperature Precipitation Wind Pressure Humidity
00:00 +11°C° 0 mm 3 mps 770 mmHg 48%
01:00 +11°C° 0 mm 4 mps 770 mmHg 49%
02:00 +10°C° 0 mm 4 mps 769 mmHg 50%
03:00 +10°C° 0 mm 4 mps 769 mmHg 52%
04:00 +10°C° 0 mm 4 mps 769 mmHg 53%
05:00 +8°C° 0 mm 4 mps 769 mmHg 54%
06:00 +8°C° 0 mm 4 mps 769 mmHg 55%
07:00 +8°C° 0 mm 4 mps 769 mmHg 55%
08:00 +10°C° 0 mm 4 mps 770 mmHg 51%
09:00 +11°C° 0 mm 4 mps 770 mmHg 47%
10:00 +13°C° 0 mm 4 mps 770 mmHg 42%
11:00 +14°C° 0 mm 4 mps 769 mmHg 39%
12:00 +14°C° 0 mm 4 mps 769 mmHg 36%
13:00 +16°C° 0 mm 3 mps 768 mmHg 33%
14:00 +17°C° 0 mm 3 mps 768 mmHg 32%
15:00 +17°C° 0 mm 2 mps 767 mmHg 31%
16:00 +17°C° 0 mm 2 mps 767 mmHg 30%
17:00 +16°C° 0 mm 2 mps 767 mmHg 33%
18:00 +15°C° 0 mm 2 mps 767 mmHg 35%
19:00 +14°C° 0 mm 2 mps 767 mmHg 38%
20:00 +13°C° 0 mm 3 mps 767 mmHg 39%
21:00 +12°C° 0 mm 3 mps 767 mmHg 41%
22:00 +12°C° 0 mm 3 mps 767 mmHg 43%
23:00 +11°C° 0 mm 4 mps 767 mmHg 44%
Show more